Regional Weather Roundup
Issued by NWS

Home | Current Version | Previous Version | Text Only | Print | Product List | Glossary On
Versions: 1 2 3 4 5 6 7 8 9 10 11 12 13 14 15 16 17 18 19 20 21 22 23 24 25 26 27 28 29 30 31 32 33 34 35 36 37 38 39 40 41 42 43 44 45 46 47 48 49 50
000
ASUS43 KTOP 032059
RWRKS

WEATHER ROUNDUP FOR KANSAS
NATIONAL WEATHER SERVICE GOODLAND KS
400 PM CDT SUN MAY 03 2015

NOTE:  "FAIR" INDICATES FEW OR NO CLOUDS BELOW 12,000 FEET WITH NO
SIGNIFICANT WEATHER AND/OR OBSTRUCTIONS TO VISIBILITY.

KSZ001>006-013>018-027>032-041>047-032200-
NORTHWEST KANSAS

CITY           SKY/WX    TMP DP  RH WIND       PRES   REMARKS
GOODLAND       PTSUNNY   83  36  18 VRB6      29.86F
HAYS           PTSUNNY   90  46  22 SE7G16    29.78F
HILL CITY      MOSUNNY   88  43  20 CALM      29.78F
RUSSELL        MOSUNNY   88  50  27 S14       29.77S
$$

KSZ061>065-074>080-084>089-032200-
SOUTHWEST KANSAS

CITY           SKY/WX    TMP DP  RH WIND       PRES   REMARKS
DODGE CITY     MOSUNNY   88  47  24 S18G24    29.82S
ELKHART          N/A     85  38  19 S8          N/A
GARDEN CITY    PTSUNNY   83  39  21 S6        29.82F
GREAT BEND     MOSUNNY   84  55  37 S14       29.78F
LIBERAL        MOSUNNY   88  45  22 S10       29.84F
$$

KSZ066>073-081>083-090>101-032200-
SOUTHEAST KANSAS

CITY           SKY/WX    TMP DP  RH WIND       PRES   REMARKS
CHANUTE        PTSUNNY   81  57  43 S23G31    29.88F
COFFEYVILLE    PTSUNNY   80  58  46 S16G28    29.90S
HUTCHINSON     MOSUNNY   84  59  42 S21G29    29.81F
MEDICINE LODGE   N/A     85  55  35 S18G29    29.82S
NEWTON         MOSUNNY   81  55  41 SW21      29.85S
PARSONS        PTSUNNY   82  59  45 S18G26    29.90F
WICHITA INTL   PTSUNNY   84  55  36 S25G33    29.83S
WICHITA JABRA  PTSUNNY   82  53  36 SW24G37   29.83S
WINFIELD       PTSUNNY   82  56  40 S26G38    29.87S
$$

KSZ007>012-019>026-033>040-048>060-102>105-032200-
NORTHEAST KANSAS

CITY           SKY/WX    TMP DP  RH WIND       PRES   REMARKS
CONCORDIA      SUNNY     89  52  28 S17G23    29.76S
EMPORIA        MOSUNNY   85  54  34 S23G33    29.82F
LAWRENCE       PTSUNNY   82  57  42 S13       29.82S
MANHATTAN      SUNNY     86  57  37 SW17      29.77F
OLATHE IND     PTSUNNY   81  57  43 S17G31    29.85F
OLATHE EXE     PTSUNNY   80  58  46 S16G35    29.84F
SALINA         FAIR      87  56  34 S18G24    29.78S
TOPEKA BILLARD PTSUNNY   82  58  43 S17G24    29.80F
TOPEKA FORBES  PTSUNNY   83  58  42 S20G28    29.80F
$$



USA.gov is the U.S. government's official web portal to all federal, state and local government web resources and services.